Time,TemperatureF,DewpointF,PressureIn,WindDirection,WindDirectionDegrees,WindSpeedMPH,WindSpeedGustMPH,Humidity,HourlyPrecipIn,Conditions,Clouds,dailyrainin,SoftwareType,DateUTC
2013-08-20 00:01:00,55.6,54.5,30.07,SW,222,0.0,0.0,96,0.00,,,0.00,Wunderground v.1.15,2013-08-20 04:01:00,
2013-08-20 00:03:00,55.6,54.5,30.07,SW,222,0.0,0.0,96,0.00,,,0.00,Wunderground v.1.15,2013-08-20 04:03:00,
2013-08-20 00:05:00,55.5,54.4,30.07,SW,222,0.0,0.0,96,0.00,,,0.00,Wunderground v.1.15,2013-08-20 04:05:00,
2013-08-20 00:10:00,55.4,54.3,30.07,SW,222,0.0,0.0,96,0.00,,,0.00,Wunderground v.1.15,2013-08-20 04:10:00,
2013-08-20 00:11:00,55.3,54.2,30.07,SW,222,0.0,0.0,96,0.00,,,0.00,Wunderground v.1.15,2013-08-20 04:11:00,
2013-08-20 00:16:00,55.2,54.1,30.08,SW,222,0.0,0.0,96,0.00,,,0.00,Wunderground v.1.15,2013-08-20 04:16:00,
2013-08-20 00:22:00,55.1,54.0,30.08,SW,222,0.0,0.0,96,0.00,,,0.00,Wunderground v.1.15,2013-08-20 04:22:00,
2013-08-20 00:27:00,54.9,53.8,30.08,SW,222,0.0,0.0,96,0.00,,,0.00,Wunderground v.1.15,2013-08-20 04:27:00,
2013-08-20 00:32:00,54.8,53.7,30.08,SW,222,0.0,0.0,96,0.00,,,0.00,Wunderground v.1.15,2013-08-20 04:32:00,
2013-08-20 00:37:00,54.9,53.8,30.08,SW,222,0.0,0.0,96,0.00,,,0.00,Wunderground v.1.15,2013-08-20 04:37:00,
2013-08-20 00:42:00,54.9,53.8,30.08,SW,222,0.0,0.0,96,0.00,,,0.00,Wunderground v.1.15,2013-08-20 04:42:00,
2013-08-20 00:47:00,55.0,53.9,30.08,SW,222,0.0,0.0,96,0.00,,,0.00,Wunderground v.1.15,2013-08-20 04:47:00,
2013-08-20 00:53:00,55.0,53.9,30.08,SW,222,0.0,0.0,96,0.00,,,0.00,Wunderground v.1.15,2013-08-20 04:53:00,
2013-08-20 00:58:00,54.9,54.1,30.08,SW,222,0.0,0.0,97,0.00,,,0.00,Wunderground v.1.15,2013-08-20 04:58:00,
2013-08-20 01:03:00,54.9,54.1,30.08,SW,222,0.0,0.0,97,0.00,,,0.00,Wunderground v.1.15,2013-08-20 05:03:00,
2013-08-20 01:08:00,54.8,54.0,30.08,SW,222,0.0,0.0,97,0.00,,,0.00,Wunderground v.1.15,2013-08-20 05:08:00,
2013-08-20 01:14:00,54.8,54.0,30.08,SW,222,0.0,0.0,97,0.00,,,0.00,Wunderground v.1.15,2013-08-20 05:14:00,
2013-08-20 01:19:00,54.7,53.9,30.07,SW,222,0.0,0.0,97,0.00,,,0.00,Wunderground v.1.15,2013-08-20 05:19:00,
2013-08-20 01:24:00,54.6,53.8,30.08,SW,222,0.0,0.0,97,0.00,,,0.00,Wunderground v.1.15,2013-08-20 05:24:00,
2013-08-20 01:29:00,54.5,53.7,30.08,SW,222,0.0,0.0,97,0.00,,,0.00,Wunderground v.1.15,2013-08-20 05:29:00,
2013-08-20 01:34:00,54.3,53.2,30.07,SW,222,0.0,0.0,96,0.00,,,0.00,Wunderground v.1.15,2013-08-20 05:34:00,
2013-08-20 01:39:00,54.2,53.1,30.07,SW,222,0.0,0.0,96,0.00,,,0.00,Wunderground v.1.15,2013-08-20 05:39:00,
2013-08-20 01:45:00,53.9,52.8,30.07,SW,224,0.0,0.0,96,0.00,,,0.00,Wunderground v.1.15,2013-08-20 05:45:00,
2013-08-20 01:50:00,53.7,52.6,30.07,SW,223,0.0,0.0,96,0.00,,,0.00,Wunderground v.1.15,2013-08-20 05:50:00,
2013-08-20 01:55:00,53.5,52.4,30.07,SW,224,0.0,0.0,96,0.00,,,0.00,Wunderground v.1.15,2013-08-20 05:55:00,
2013-08-20 02:00:00,53.4,52.6,30.07,SW,224,0.0,0.0,97,0.00,,,0.00,Wunderground v.1.15,2013-08-20 06:00:00,
2013-08-20 02:06:00,53.2,52.4,30.07,SW,223,0.0,0.0,97,0.00,,,0.00,Wunderground v.1.15,2013-08-20 06:06:00,
2013-08-20 02:11:00,53.1,52.0,30.07,SW,222,0.0,0.0,96,0.00,,,0.00,Wunderground v.1.15,2013-08-20 06:11:00,
2013-08-20 02:16:00,53.0,52.2,30.07,SW,224,0.0,0.0,97,0.00,,,0.00,Wunderground v.1.15,2013-08-20 06:16:00,
2013-08-20 02:21:00,52.9,52.1,30.07,SW,224,0.0,0.0,97,0.00,,,0.00,Wunderground v.1.15,2013-08-20 06:21:00,
2013-08-20 02:27:00,52.8,52.0,30.07,SW,224,0.0,0.0,97,0.00,,,0.00,Wunderground v.1.15,2013-08-20 06:27:00,
2013-08-20 02:32:00,52.8,52.0,30.07,SW,224,0.0,0.0,97,0.00,,,0.00,Wunderground v.1.15,2013-08-20 06:32:00,
2013-08-20 02:37:00,52.8,52.0,30.07,SW,224,0.0,0.0,97,0.00,,,0.00,Wunderground v.1.15,2013-08-20 06:37:00,
2013-08-20 02:42:00,52.7,51.9,30.07,SW,223,0.0,0.0,97,0.00,,,0.00,Wunderground v.1.15,2013-08-20 06:42:00,
2013-08-20 02:47:00,52.6,51.8,30.07,SW,224,0.0,0.0,97,0.00,,,0.00,Wunderground v.1.15,2013-08-20 06:47:00,
2013-08-20 02:53:00,52.6,51.8,30.07,SW,224,0.0,0.0,97,0.00,,,0.00,Wunderground v.1.15,2013-08-20 06:53:00,
2013-08-20 02:58:00,52.5,51.7,30.07,SW,224,0.0,0.0,97,0.00,,,0.00,Wunderground v.1.15,2013-08-20 06:58:00,
2013-08-20 03:03:00,52.4,51.6,30.07,SW,224,0.0,0.0,97,0.00,,,0.00,Wunderground v.1.15,2013-08-20 07:03:00,
2013-08-20 03:08:00,52.4,51.6,30.07,SW,221,0.0,0.0,97,0.00,,,0.00,Wunderground v.1.15,2013-08-20 07:08:00,
2013-08-20 03:13:00,52.3,51.5,30.07,SW,221,0.0,0.0,97,0.00,,,0.00,Wunderground v.1.15,2013-08-20 07:13:00,
2013-08-20 03:19:00,52.3,51.5,30.08,SW,220,0.0,0.0,97,0.00,,,0.00,Wunderground v.1.15,2013-08-20 07:19:00,
2013-08-20 03:24:00,52.1,51.3,30.08,SW,221,0.0,0.0,97,0.00,,,0.00,Wunderground v.1.15,2013-08-20 07:24:00,
2013-08-20 03:29:00,52.1,51.3,30.08,SW,221,0.0,0.0,97,0.00,,,0.00,Wunderground v.1.15,2013-08-20 07:29:00,
2013-08-20 03:34:00,52.0,51.2,30.08,SW,221,0.0,0.0,97,0.00,,,0.00,Wunderground v.1.15,2013-08-20 07:34:00,
2013-08-20 03:39:00,51.9,51.1,30.08,SW,221,0.0,0.0,97,0.00,,,0.00,Wunderground v.1.15,2013-08-20 07:39:00,
2013-08-20 03:44:00,51.8,51.0,30.08,SW,221,0.0,0.0,97,0.00,,,0.00,Wunderground v.1.15,2013-08-20 07:44:00,
2013-08-20 03:50:00,51.8,51.0,30.08,SW,221,0.0,0.0,97,0.00,,,0.00,Wunderground v.1.15,2013-08-20 07:50:00,
2013-08-20 03:55:00,51.8,51.0,30.08,SW,221,0.0,0.0,97,0.00,,,0.00,Wunderground v.1.15,2013-08-20 07:55:00,
2013-08-20 04:00:00,51.8,51.0,30.08,SW,221,0.0,0.0,97,0.00,,,0.00,Wunderground v.1.15,2013-08-20 08:00:00,
2013-08-20 04:05:00,51.7,50.9,30.08,SW,221,0.0,0.0,97,0.00,,,0.00,Wunderground v.1.15,2013-08-20 08:05:00,
2013-08-20 04:11:00,51.7,50.9,30.08,SW,220,0.0,0.0,97,0.00,,,0.00,Wunderground v.1.15,2013-08-20 08:11:00,
2013-08-20 04:18:00,51.7,50.9,30.08,SW,221,0.0,0.0,97,0.00,,,0.00,Wunderground v.1.15,2013-08-20 08:18:00,
2013-08-20 04:24:00,51.6,50.8,30.09,SW,221,0.0,0.0,97,0.00,,,0.00,Wunderground v.1.15,2013-08-20 08:24:00,
2013-08-20 04:29:00,51.5,50.7,30.09,SW,221,0.0,0.0,97,0.00,,,0.00,Wunderground v.1.15,2013-08-20 08:29:00,
2013-08-20 04:34:00,51.5,50.7,30.09,SW,221,0.0,0.0,97,0.00,,,0.00,Wunderground v.1.15,2013-08-20 08:34:00,
2013-08-20 04:40:00,51.4,50.6,30.09,SW,221,0.0,0.0,97,0.00,,,0.00,Wunderground v.1.15,2013-08-20 08:40:00,
2013-08-20 04:45:00,51.4,50.6,30.09,SW,221,0.0,0.0,97,0.00,,,0.00,Wunderground v.1.15,2013-08-20 08:45:00,
2013-08-20 04:50:00,51.3,50.5,30.09,SW,221,0.0,0.0,97,0.00,,,0.00,Wunderground v.1.15,2013-08-20 08:50:00,
2013-08-20 04:55:00,51.3,50.5,30.09,SW,220,0.0,0.0,97,0.00,,,0.00,Wunderground v.1.15,2013-08-20 08:55:00,
2013-08-20 05:00:00,51.2,50.4,30.09,SW,221,0.0,0.0,97,0.00,,,0.00,Wunderground v.1.15,2013-08-20 09:00:00,
2013-08-20 05:06:00,51.2,50.4,30.09,SW,221,0.0,0.0,97,0.00,,,0.00,Wunderground v.1.15,2013-08-20 09:06:00,
2013-08-20 05:11:00,51.3,50.5,30.09,SW,221,0.0,0.0,97,0.00,,,0.00,Wunderground v.1.15,2013-08-20 09:11:00,
2013-08-20 05:16:00,51.3,50.5,30.10,SW,221,0.0,0.0,97,0.00,,,0.00,Wunderground v.1.15,2013-08-20 09:16:00,
2013-08-20 05:21:00,51.2,50.4,30.10,SW,221,0.0,0.0,97,0.00,,,0.00,Wunderground v.1.15,2013-08-20 09:21:00,
2013-08-20 05:27:00,51.2,50.4,30.10,SW,221,0.0,0.0,97,0.00,,,0.00,Wunderground v.1.15,2013-08-20 09:27:00,
2013-08-20 05:32:00,51.1,50.3,30.10,SW,221,0.0,0.0,97,0.00,,,0.00,Wunderground v.1.15,2013-08-20 09:32:00,
2013-08-20 05:37:00,51.1,50.3,30.10,SW,221,0.0,0.0,97,0.00,,,0.00,Wunderground v.1.15,2013-08-20 09:37:00,
2013-08-20 05:43:00,51.1,50.3,30.10,SW,221,0.0,0.0,97,0.00,,,0.00,Wunderground v.1.15,2013-08-20 09:43:00,
2013-08-20 05:48:00,51.0,50.2,30.10,SW,221,0.0,0.0,97,0.00,,,0.00,Wunderground v.1.15,2013-08-20 09:48:00,
2013-08-20 05:53:00,51.0,50.5,30.10,SW,221,0.0,0.0,98,0.00,,,0.00,Wunderground v.1.15,2013-08-20 09:53:00,
2013-08-20 05:58:00,50.9,50.1,30.10,SW,221,0.0,0.0,97,0.00,,,0.00,Wunderground v.1.15,2013-08-20 09:58:00,
2013-08-20 06:03:00,50.8,50.0,30.10,SW,221,0.0,0.0,97,0.00,,,0.00,Wunderground v.1.15,2013-08-20 10:03:00,
2013-08-20 06:09:00,50.8,50.0,30.10,SW,220,0.0,0.0,97,0.00,,,0.00,Wunderground v.1.15,2013-08-20 10:09:00,
2013-08-20 06:14:00,50.7,50.2,30.11,SW,221,0.0,0.0,98,0.00,,,0.00,Wunderground v.1.15,2013-08-20 10:14:00,
2013-08-20 06:19:00,50.6,49.8,30.11,SW,221,0.0,0.0,97,0.00,,,0.00,Wunderground v.1.15,2013-08-20 10:19:00,
2013-08-20 06:24:00,50.6,50.1,30.11,SW,221,0.0,0.0,98,0.00,,,0.00,Wunderground v.1.15,2013-08-20 10:24:00,
2013-08-20 06:29:00,50.5,50.0,30.11,SW,221,0.0,0.0,98,0.00,,,0.00,Wunderground v.1.15,2013-08-20 10:29:00,
2013-08-20 06:34:00,50.5,50.0,30.12,SW,221,0.0,0.0,98,0.00,,,0.00,Wunderground v.1.15,2013-08-20 10:34:00,
2013-08-20 06:40:00,50.5,50.0,30.12,SW,221,0.0,0.0,98,0.00,,,0.00,Wunderground v.1.15,2013-08-20 10:40:00,
2013-08-20 06:46:00,50.5,50.0,30.12,SW,221,0.0,0.0,98,0.00,,,0.00,Wunderground v.1.15,2013-08-20 10:46:00,
2013-08-20 06:51:00,50.4,49.9,30.12,SW,221,0.0,0.0,98,0.00,,,0.00,Wunderground v.1.15,2013-08-20 10:51:00,
2013-08-20 06:56:00,50.5,50.0,30.12,SW,221,0.0,0.0,98,0.00,,,0.00,Wunderground v.1.15,2013-08-20 10:56:00,
2013-08-20 07:01:00,50.5,50.0,30.13,SW,221,0.0,0.0,98,0.00,,,0.00,Wunderground v.1.15,2013-08-20 11:01:00,
2013-08-20 07:07:00,50.6,50.1,30.13,SW,221,0.0,0.0,98,0.00,,,0.00,Wunderground v.1.15,2013-08-20 11:07:00,
2013-08-20 07:12:00,50.8,50.3,30.13,SW,221,0.0,0.0,98,0.00,,,0.00,Wunderground v.1.15,2013-08-20 11:12:00,
2013-08-20 07:17:00,51.1,50.6,30.13,SW,218,0.0,0.0,98,0.00,,,0.00,Wunderground v.1.15,2013-08-20 11:17:00,
2013-08-20 07:22:00,51.4,50.9,30.13,SW,218,0.0,0.0,98,0.00,,,0.00,Wunderground v.1.15,2013-08-20 11:22:00,
2013-08-20 07:27:00,51.7,51.2,30.13,SW,218,0.0,0.0,98,0.00,,,0.00,Wunderground v.1.15,2013-08-20 11:27:00,
2013-08-20 07:33:00,51.8,51.3,30.13,SW,217,0.0,0.0,98,0.00,,,0.00,Wunderground v.1.15,2013-08-20 11:33:00,
2013-08-20 07:38:00,52.0,51.5,30.13,SW,218,0.0,0.0,98,0.00,,,0.00,Wunderground v.1.15,2013-08-20 11:38:00,
2013-08-20 07:43:00,52.2,51.7,30.14,SW,218,0.0,0.0,98,0.00,,,0.00,Wunderground v.1.15,2013-08-20 11:43:00,
2013-08-20 07:48:00,52.4,51.9,30.14,SW,218,0.0,0.0,98,0.00,,,0.00,Wunderground v.1.15,2013-08-20 11:48:00,
2013-08-20 07:53:00,52.6,52.1,30.14,SW,218,0.0,0.0,98,0.00,,,0.00,Wunderground v.1.15,2013-08-20 11:53:00,
2013-08-20 07:59:00,52.9,52.4,30.14,SW,218,0.0,0.0,98,0.00,,,0.00,Wunderground v.1.15,2013-08-20 11:59:00,
2013-08-20 08:04:00,53.2,52.7,30.14,SW,218,0.0,0.0,98,0.00,,,0.00,Wunderground v.1.15,2013-08-20 12:04:00,
2013-08-20 08:09:00,53.4,52.8,30.14,SW,218,0.0,0.0,98,0.00,,,0.00,Wunderground v.1.15,2013-08-20 12:09:00,
2013-08-20 08:14:00,53.6,53.0,30.14,SW,218,0.0,0.0,98,0.00,,,0.00,Wunderground v.1.15,2013-08-20 12:14:00,
2013-08-20 08:19:00,54.1,53.5,30.14,SW,218,0.0,0.0,98,0.00,,,0.00,Wunderground v.1.15,2013-08-20 12:19:00,
2013-08-20 08:24:00,54.4,53.8,30.14,SW,218,0.0,0.0,98,0.00,,,0.00,Wunderground v.1.15,2013-08-20 12:24:00,
2013-08-20 08:29:00,54.8,54.5,30.14,SW,218,0.0,0.0,99,0.00,,,0.00,Wunderground v.1.15,2013-08-20 12:29:00,
2013-08-20 08:34:00,55.3,55.0,30.14,SW,218,0.0,0.0,99,0.00,,,0.00,Wunderground v.1.15,2013-08-20 12:34:00,
2013-08-20 08:40:00,56.2,55.9,30.14,SW,218,0.0,0.0,99,0.00,,,0.00,Wunderground v.1.15,2013-08-20 12:40:00,
2013-08-20 08:45:00,56.7,56.4,30.15,SW,218,0.0,0.0,99,0.00,,,0.00,Wunderground v.1.15,2013-08-20 12:45:00,
2013-08-20 08:50:00,57.2,56.9,30.14,SW,218,0.0,0.0,99,0.00,,,0.00,Wunderground v.1.15,2013-08-20 12:50:00,
2013-08-20 08:55:00,57.8,57.5,30.14,SSW,200,0.0,0.0,99,0.00,,,0.00,Wunderground v.1.15,2013-08-20 12:55:00,
2013-08-20 09:00:00,58.3,58.0,30.15,SSW,200,0.0,0.0,99,0.00,,,0.00,Wunderground v.1.15,2013-08-20 13:00:00,
2013-08-20 09:05:00,59.0,58.7,30.14,SSW,200,0.0,0.0,99,0.00,,,0.00,Wunderground v.1.15,2013-08-20 13:05:00,
2013-08-20 09:11:00,59.6,59.3,30.15,SSW,200,0.0,0.0,99,0.00,,,0.00,Wunderground v.1.15,2013-08-20 13:11:00,
2013-08-20 09:16:00,60.1,59.8,30.14,SSW,212,0.0,0.0,99,0.00,,,0.00,Wunderground v.1.15,2013-08-20 13:16:00,
2013-08-20 09:22:00,60.6,60.3,30.14,SE,138,0.0,0.0,99,0.00,,,0.00,Wunderground v.1.15,2013-08-20 13:22:00,
2013-08-20 09:27:00,61.4,61.1,30.14,South,191,0.0,0.0,99,0.00,,,0.00,Wunderground v.1.15,2013-08-20 13:27:00,
2013-08-20 09:32:00,62.2,61.9,30.14,South,190,0.0,0.0,99,0.00,,,0.00,Wunderground v.1.15,2013-08-20 13:32:00,
2013-08-20 09:38:00,63.4,63.1,30.14,South,191,0.0,0.0,99,0.00,,,0.00,Wunderground v.1.15,2013-08-20 13:38:00,
2013-08-20 09:44:00,64.3,63.7,30.14,South,190,0.0,0.0,98,0.00,,,0.00,Wunderground v.1.15,2013-08-20 13:44:00,
2013-08-20 09:49:00,65.4,64.5,30.14,SSW,194,0.0,0.0,97,0.00,,,0.00,Wunderground v.1.15,2013-08-20 13:49:00,
2013-08-20 09:54:00,66.7,64.6,30.14,SSW,194,0.0,0.0,93,0.00,,,0.00,Wunderground v.1.15,2013-08-20 13:54:00,
2013-08-20 09:59:00,68.1,65.4,30.14,SSW,194,0.0,0.0,91,0.00,,,0.00,Wunderground v.1.15,2013-08-20 13:59:00,
2013-08-20 10:04:00,69.5,65.5,30.14,South,183,0.0,1.0,87,0.00,,,0.00,Wunderground v.1.15,2013-08-20 14:04:00,
2013-08-20 10:10:00,70.9,66.2,30.14,South,186,0.0,1.0,85,0.00,,,0.00,Wunderground v.1.15,2013-08-20 14:10:00,
2013-08-20 10:15:00,71.8,66.4,30.14,SW,214,0.0,1.0,83,0.00,,,0.00,Wunderground v.1.15,2013-08-20 14:15:00,
2013-08-20 10:20:00,73.0,66.5,30.14,SE,146,0.0,1.0,80,0.00,,,0.00,Wunderground v.1.15,2013-08-20 14:20:00,
2013-08-20 10:25:00,73.8,66.1,30.14,SSW,208,0.0,1.0,77,0.00,,,0.00,Wunderground v.1.15,2013-08-20 14:25:00,
2013-08-20 10:30:00,74.8,66.0,30.14,ESE,114,0.0,1.0,74,0.00,,,0.00,Wunderground v.1.15,2013-08-20 14:30:00,
2013-08-20 10:36:00,75.8,67.3,30.14,ESE,116,0.0,1.0,75,0.00,,,0.00,Wunderground v.1.15,2013-08-20 14:36:00,
2013-08-20 10:41:00,76.8,66.7,30.14,ESE,115,0.0,1.0,71,0.00,,,0.00,Wunderground v.1.15,2013-08-20 14:41:00,
2013-08-20 10:46:00,76.9,66.8,30.14,SE,139,0.0,2.0,71,0.00,,,0.00,Wunderground v.1.15,2013-08-20 14:46:00,
2013-08-20 10:52:00,77.3,67.6,30.14,ENE,78,0.0,2.0,72,0.00,,,0.00,Wunderground v.1.15,2013-08-20 14:52:00,
2013-08-20 10:57:00,77.2,67.1,30.14,ENE,76,0.0,2.0,71,0.00,,,0.00,Wunderground v.1.15,2013-08-20 14:57:00,
2013-08-20 11:02:00,77.4,67.3,30.14,SW,219,0.0,1.0,71,0.00,,,0.00,Wunderground v.1.15,2013-08-20 15:02:00,
2013-08-20 11:07:00,78.0,67.0,30.14,WSW,256,0.0,1.0,69,0.00,,,0.00,Wunderground v.1.15,2013-08-20 15:07:00,
2013-08-20 11:12:00,78.4,65.7,30.14,West,260,1.0,2.0,65,0.00,,,0.00,Wunderground v.1.15,2013-08-20 15:12:00,
2013-08-20 11:18:00,78.6,66.3,30.14,WNW,288,1.0,2.0,66,0.00,,,0.00,Wunderground v.1.15,2013-08-20 15:18:00,
2013-08-20 11:23:00,79.1,65.9,30.14,SW,217,0.0,1.0,64,0.00,,,0.00,Wunderground v.1.15,2013-08-20 15:23:00,
2013-08-20 11:29:00,79.7,66.4,30.14,SW,224,1.0,3.0,64,0.00,,,0.00,Wunderground v.1.15,2013-08-20 15:29:00,
2013-08-20 11:34:00,79.4,66.6,30.14,SW,217,1.0,3.0,65,0.00,,,0.00,Wunderground v.1.15,2013-08-20 15:34:00,
2013-08-20 11:39:00,79.5,65.8,30.14,SW,215,1.0,3.0,63,0.00,,,0.00,Wunderground v.1.15,2013-08-20 15:39:00,
2013-08-20 11:45:00,79.5,65.3,30.14,WSW,243,1.0,3.0,62,0.00,,,0.00,Wunderground v.1.15,2013-08-20 15:45:00,
2013-08-20 11:50:00,79.3,66.1,30.14,SW,222,1.0,1.0,64,0.00,,,0.00,Wunderground v.1.15,2013-08-20 15:50:00,
2013-08-20 11:55:00,79.5,65.8,30.14,SW,222,1.0,3.0,63,0.00,,,0.00,Wunderground v.1.15,2013-08-20 15:55:00,
2013-08-20 12:01:00,79.5,65.8,30.14,SW,229,1.0,1.0,63,0.00,,,0.00,Wunderground v.1.15,2013-08-20 16:01:00,
2013-08-20 12:06:00,79.7,65.5,30.14,SSE,154,1.0,3.0,62,0.00,,,0.00,Wunderground v.1.15,2013-08-20 16:06:00,
2013-08-20 12:12:00,79.6,65.9,30.14,South,180,1.0,1.0,63,0.00,,,0.00,Wunderground v.1.15,2013-08-20 16:12:00,
2013-08-20 12:17:00,79.4,65.7,30.13,SSW,201,0.0,1.0,63,0.00,,,0.00,Wunderground v.1.15,2013-08-20 16:17:00,
2013-08-20 12:23:00,79.6,65.9,30.13,SW,231,1.0,2.0,63,0.00,,,0.00,Wunderground v.1.15,2013-08-20 16:23:00,
2013-08-20 12:29:00,79.6,65.4,30.13,SW,224,1.0,2.0,62,0.00,,,0.00,Wunderground v.1.15,2013-08-20 16:29:00,
2013-08-20 12:34:00,79.5,63.9,30.13,SW,214,1.0,2.0,59,0.00,,,0.00,Wunderground v.1.15,2013-08-20 16:34:00,
2013-08-20 12:39:00,79.4,64.3,30.13,SE,124,2.0,2.0,60,0.00,,,0.00,Wunderground v.1.15,2013-08-20 16:39:00,
2013-08-20 12:44:00,79.6,64.0,30.13,WSW,246,2.0,4.0,59,0.00,,,0.00,Wunderground v.1.15,2013-08-20 16:44:00,
2013-08-20 12:50:00,80.0,63.4,30.13,WSW,245,2.0,2.0,57,0.00,,,0.00,Wunderground v.1.15,2013-08-20 16:50:00,
2013-08-20 12:55:00,80.5,63.4,30.13,WNW,291,2.0,2.0,56,0.00,,,0.00,Wunderground v.1.15,2013-08-20 16:55:00,
2013-08-20 13:00:00,80.2,63.1,30.13,WNW,298,2.0,2.0,56,0.00,,,0.00,Wunderground v.1.15,2013-08-20 17:00:00,
2013-08-20 13:05:00,79.9,64.8,30.13,WNW,284,2.0,2.0,60,0.00,,,0.00,Wunderground v.1.15,2013-08-20 17:05:00,
2013-08-20 13:10:00,79.8,64.7,30.13,WSW,251,2.0,2.0,60,0.00,,,0.00,Wunderground v.1.15,2013-08-20 17:10:00,
2013-08-20 13:16:00,80.2,62.6,30.13,SW,233,2.0,5.0,55,0.00,,,0.00,Wunderground v.1.15,2013-08-20 17:16:00,
2013-08-20 13:21:00,81.2,64.0,30.13,SW,226,1.0,4.0,56,0.00,,,0.00,Wunderground v.1.15,2013-08-20 17:21:00,
2013-08-20 13:26:00,81.2,64.5,30.13,WNW,295,1.0,4.0,57,0.00,,,0.00,Wunderground v.1.15,2013-08-20 17:26:00,
2013-08-20 13:32:00,80.9,64.7,30.13,SW,229,1.0,1.0,58,0.00,,,0.00,Wunderground v.1.15,2013-08-20 17:32:00,
2013-08-20 13:37:00,80.7,64.5,30.13,SW,228,1.0,4.0,58,0.00,,,0.00,Wunderground v.1.15,2013-08-20 17:37:00,
2013-08-20 13:42:00,79.8,64.2,30.13,WNW,294,1.0,2.0,59,0.00,,,0.00,Wunderground v.1.15,2013-08-20 17:42:00,
2013-08-20 13:47:00,79.7,65.1,30.13,WSW,238,1.0,3.0,61,0.00,,,0.00,Wunderground v.1.15,2013-08-20 17:47:00,
2013-08-20 13:53:00,79.2,64.1,30.13,West,259,2.0,3.0,60,0.00,,,0.00,Wunderground v.1.15,2013-08-20 17:53:00,
2013-08-20 13:58:00,79.5,64.4,30.12,SW,231,2.0,5.0,60,0.00,,,0.00,Wunderground v.1.15,2013-08-20 17:58:00,
2013-08-20 14:03:00,79.4,64.8,30.12,ESE,116,2.0,2.0,61,0.00,,,0.00,Wunderground v.1.15,2013-08-20 18:03:00,
2013-08-20 14:08:00,80.2,65.5,30.12,SW,222,2.0,2.0,61,0.00,,,0.00,Wunderground v.1.15,2013-08-20 18:08:00,
2013-08-20 14:14:00,80.1,65.0,30.12,SW,231,2.0,4.0,60,0.00,,,0.00,Wunderground v.1.15,2013-08-20 18:14:00,
2013-08-20 14:19:00,80.0,67.2,30.12,WSW,239,2.0,7.0,65,0.00,,,0.00,Wunderground v.1.15,2013-08-20 18:19:00,
2013-08-20 14:24:00,79.6,67.7,30.12,NW,318,3.0,3.0,67,0.00,,,0.00,Wunderground v.1.15,2013-08-20 18:24:00,
2013-08-20 14:30:00,79.4,66.6,30.12,WSW,258,2.0,2.0,65,0.00,,,0.00,Wunderground v.1.15,2013-08-20 18:30:00,
2013-08-20 14:35:00,78.9,66.1,30.12,SW,236,3.0,4.0,65,0.00,,,0.00,Wunderground v.1.15,2013-08-20 18:35:00,
2013-08-20 14:40:00,78.1,65.8,30.12,West,276,3.0,3.0,66,0.00,,,0.00,Wunderground v.1.15,2013-08-20 18:40:00,
2013-08-20 14:46:00,78.3,65.6,30.12,SSW,207,2.0,3.0,65,0.00,,,0.00,Wunderground v.1.15,2013-08-20 18:46:00,
2013-08-20 14:51:00,78.8,66.5,30.12,SW,219,2.0,4.0,66,0.00,,,0.00,Wunderground v.1.15,2013-08-20 18:51:00,
2013-08-20 14:56:00,79.0,63.4,30.12,SSW,212,2.0,4.0,59,0.00,,,0.00,Wunderground v.1.15,2013-08-20 18:56:00,
2013-08-20 15:02:00,79.6,64.5,30.12,SW,226,2.0,2.0,60,0.00,,,0.00,Wunderground v.1.15,2013-08-20 19:02:00,
2013-08-20 15:07:00,79.5,63.4,30.12,WNW,297,2.0,3.0,58,0.00,,,0.00,Wunderground v.1.15,2013-08-20 19:07:00,
2013-08-20 15:12:00,79.2,61.1,30.12,WNW,301,3.0,4.0,54,0.00,,,0.00,Wunderground v.1.15,2013-08-20 19:12:00,
2013-08-20 15:17:00,78.8,60.2,30.12,WNW,291,3.0,6.0,53,0.00,,,0.00,Wunderground v.1.15,2013-08-20 19:17:00,
2013-08-20 15:23:00,78.7,60.1,30.12,WSW,250,3.0,3.0,53,0.00,,,0.00,Wunderground v.1.15,2013-08-20 19:23:00,
2013-08-20 15:28:00,78.7,60.7,30.12,West,280,3.0,5.0,54,0.00,,,0.00,Wunderground v.1.15,2013-08-20 19:28:00,
2013-08-20 15:33:00,78.8,60.2,30.12,WSW,243,3.0,5.0,53,0.00,,,0.00,Wunderground v.1.15,2013-08-20 19:33:00,
2013-08-20 15:39:00,79.2,61.1,30.12,SW,232,2.0,9.0,54,0.00,,,0.00,Wunderground v.1.15,2013-08-20 19:39:00,
2013-08-20 15:44:00,79.1,60.0,30.12,SW,232,3.0,5.0,52,0.00,,,0.00,Wunderground v.1.15,2013-08-20 19:44:00,
2013-08-20 15:50:00,79.6,61.0,30.11,WSW,248,2.0,2.0,53,0.00,,,0.00,Wunderground v.1.15,2013-08-20 19:50:00,
2013-08-20 15:55:00,79.8,61.1,30.11,SSW,208,1.0,3.0,53,0.00,,,0.00,Wunderground v.1.15,2013-08-20 19:55:00,
2013-08-20 16:00:00,79.0,59.9,30.11,NNW,329,2.0,2.0,52,0.00,,,0.00,Wunderground v.1.15,2013-08-20 20:00:00,
2013-08-20 16:05:00,78.9,60.8,30.11,West,277,2.0,2.0,54,0.00,,,0.00,Wunderground v.1.15,2013-08-20 20:05:00,
2013-08-20 16:11:00,79.1,60.0,30.11,WSW,240,2.0,4.0,52,0.00,,,0.00,Wunderground v.1.15,2013-08-20 20:11:00,
2013-08-20 16:16:00,78.9,60.3,30.11,SW,219,2.0,4.0,53,0.00,,,0.00,Wunderground v.1.15,2013-08-20 20:16:00,
2013-08-20 16:21:00,78.9,60.3,30.11,WNW,284,2.0,2.0,53,0.00,,,0.00,Wunderground v.1.15,2013-08-20 20:21:00,
2013-08-20 16:26:00,78.7,61.2,30.11,WNW,289,2.0,2.0,55,0.00,,,0.00,Wunderground v.1.15,2013-08-20 20:26:00,
2013-08-20 16:32:00,78.5,61.0,30.11,WNW,292,2.0,2.0,55,0.00,,,0.00,Wunderground v.1.15,2013-08-20 20:32:00,
2013-08-20 16:37:00,78.3,60.3,30.10,NW,311,2.0,3.0,54,0.00,,,0.00,Wunderground v.1.15,2013-08-20 20:37:00,
2013-08-20 16:42:00,78.2,61.7,30.10,NW,316,1.0,1.0,57,0.00,,,0.00,Wunderground v.1.15,2013-08-20 20:42:00,
2013-08-20 16:48:00,78.5,62.0,30.10,WSW,253,1.0,3.0,57,0.00,,,0.00,Wunderground v.1.15,2013-08-20 20:48:00,
2013-08-20 16:53:00,78.7,61.7,30.10,WNW,290,1.0,3.0,56,0.00,,,0.00,Wunderground v.1.15,2013-08-20 20:53:00,
2013-08-20 16:58:00,78.5,62.5,30.10,WNW,296,1.0,3.0,58,0.00,,,0.00,Wunderground v.1.15,2013-08-20 20:58:00,
2013-08-20 17:04:00,78.2,61.2,30.10,NW,309,2.0,4.0,56,0.00,,,0.00,Wunderground v.1.15,2013-08-20 21:04:00,
2013-08-20 17:09:00,78.0,61.5,30.10,WNW,295,2.0,4.0,57,0.00,,,0.00,Wunderground v.1.15,2013-08-20 21:09:00,
2013-08-20 17:14:00,77.9,61.9,30.10,West,264,2.0,4.0,58,0.00,,,0.00,Wunderground v.1.15,2013-08-20 21:14:00,
2013-08-20 17:19:00,78.0,62.0,30.10,WNW,294,2.0,4.0,58,0.00,,,0.00,Wunderground v.1.15,2013-08-20 21:19:00,
2013-08-20 17:25:00,77.9,61.4,30.10,WSW,243,2.0,4.0,57,0.00,,,0.00,Wunderground v.1.15,2013-08-20 21:25:00,
2013-08-20 17:30:00,78.0,61.5,30.10,West,270,1.0,2.0,57,0.00,,,0.00,Wunderground v.1.15,2013-08-20 21:30:00,
2013-08-20 17:35:00,78.2,62.2,30.10,WSW,250,1.0,2.0,58,0.00,,,0.00,Wunderground v.1.15,2013-08-20 21:35:00,
2013-08-20 17:41:00,78.0,61.5,30.10,WNW,290,2.0,4.0,57,0.00,,,0.00,Wunderground v.1.15,2013-08-20 21:41:00,
2013-08-20 17:46:00,77.9,61.9,30.10,West,260,2.0,4.0,58,0.00,,,0.00,Wunderground v.1.15,2013-08-20 21:46:00,
2013-08-20 17:51:00,78.0,62.5,30.10,West,263,2.0,2.0,59,0.00,,,0.00,Wunderground v.1.15,2013-08-20 21:51:00,
2013-08-20 17:56:00,77.9,61.4,30.10,NNE,23,1.0,2.0,57,0.00,,,0.00,Wunderground v.1.15,2013-08-20 21:56:00,
2013-08-20 18:02:00,77.9,62.4,30.10,West,270,1.0,1.0,59,0.00,,,0.00,Wunderground v.1.15,2013-08-20 22:02:00,
2013-08-20 18:07:00,77.9,61.9,30.10,West,271,1.0,3.0,58,0.00,,,0.00,Wunderground v.1.15,2013-08-20 22:07:00,
2013-08-20 18:12:00,77.8,61.3,30.10,WNW,300,1.0,1.0,57,0.00,,,0.00,Wunderground v.1.15,2013-08-20 22:12:00,
2013-08-20 18:17:00,77.9,61.4,30.10,NW,316,1.0,2.0,57,0.00,,,0.00,Wunderground v.1.15,2013-08-20 22:17:00,
2013-08-20 18:23:00,78.1,62.1,30.10,West,277,1.0,2.0,58,0.00,,,0.00,Wunderground v.1.15,2013-08-20 22:23:00,
2013-08-20 18:28:00,78.0,61.5,30.10,NW,316,1.0,2.0,57,0.00,,,0.00,Wunderground v.1.15,2013-08-20 22:28:00,
2013-08-20 18:33:00,78.0,62.5,30.10,SW,236,1.0,1.0,59,0.00,,,0.00,Wunderground v.1.15,2013-08-20 22:33:00,
2013-08-20 18:39:00,77.8,62.3,30.10,SW,226,0.0,1.0,59,0.00,,,0.00,Wunderground v.1.15,2013-08-20 22:39:00,
2013-08-20 18:44:00,77.4,61.9,30.10,SW,235,1.0,3.0,59,0.00,,,0.00,Wunderground v.1.15,2013-08-20 22:44:00,
2013-08-20 18:49:00,76.9,62.0,30.10,WSW,246,1.0,3.0,60,0.00,,,0.00,Wunderground v.1.15,2013-08-20 22:49:00,
2013-08-20 18:55:00,76.5,62.0,30.10,SW,224,1.0,2.0,61,0.00,,,0.00,Wunderground v.1.15,2013-08-20 22:55:00,
2013-08-20 19:00:00,76.2,62.7,30.10,SW,235,1.0,1.0,63,0.00,,,0.00,Wunderground v.1.15,2013-08-20 23:00:00,
2013-08-20 19:05:00,75.9,62.4,30.10,SW,228,1.0,2.0,63,0.00,,,0.00,Wunderground v.1.15,2013-08-20 23:05:00,
2013-08-20 19:10:00,75.6,62.6,30.10,SW,221,1.0,1.0,64,0.00,,,0.00,Wunderground v.1.15,2013-08-20 23:10:00,
2013-08-20 19:17:00,75.3,62.7,30.10,SW,221,1.0,2.0,65,0.00,,,0.00,Wunderground v.1.15,2013-08-20 23:17:00,
2013-08-20 19:23:00,75.0,64.1,30.10,SW,221,0.0,1.0,69,0.00,,,0.00,Wunderground v.1.15,2013-08-20 23:23:00,
2013-08-20 19:28:00,74.8,64.8,30.10,SW,221,0.0,1.0,71,0.00,,,0.00,Wunderground v.1.15,2013-08-20 23:28:00,
2013-08-20 19:33:00,74.4,64.4,30.10,SW,221,0.0,1.0,71,0.00,,,0.00,Wunderground v.1.15,2013-08-20 23:33:00,
2013-08-20 19:39:00,73.8,65.0,30.10,SW,221,0.0,1.0,74,0.00,,,0.00,Wunderground v.1.15,2013-08-20 23:39:00,
2013-08-20 19:44:00,73.2,65.2,30.10,SW,221,0.0,1.0,76,0.00,,,0.00,Wunderground v.1.15,2013-08-20 23:44:00,
2013-08-20 19:49:00,72.5,64.9,30.10,SW,221,0.0,1.0,77,0.00,,,0.00,Wunderground v.1.15,2013-08-20 23:49:00,
2013-08-20 19:55:00,71.8,64.6,30.10,SW,221,0.0,1.0,78,0.00,,,0.00,Wunderground v.1.15,2013-08-20 23:55:00,
2013-08-20 20:00:00,71.1,63.9,30.10,SW,220,0.0,1.0,78,0.00,,,0.00,Wunderground v.1.15,2013-08-21 00:00:00,
2013-08-20 20:05:00,70.4,63.9,30.10,SW,221,0.0,1.0,80,0.00,,,0.00,Wunderground v.1.15,2013-08-21 00:05:00,
2013-08-20 20:10:00,69.8,63.7,30.11,SW,221,0.0,1.0,81,0.00,,,0.00,Wunderground v.1.15,2013-08-21 00:10:00,
2013-08-20 20:16:00,69.3,63.6,30.10,SW,221,0.0,1.0,82,0.00,,,0.00,Wunderground v.1.15,2013-08-21 00:16:00,
2013-08-20 20:21:00,68.8,63.1,30.11,SW,221,0.0,1.0,82,0.00,,,0.00,Wunderground v.1.15,2013-08-21 00:21:00,
2013-08-20 20:26:00,68.3,62.9,30.10,SW,221,0.0,1.0,83,0.00,,,0.00,Wunderground v.1.15,2013-08-21 00:26:00,
2013-08-20 20:32:00,67.7,62.7,30.11,SW,220,0.0,1.0,84,0.00,,,0.00,Wunderground v.1.15,2013-08-21 00:32:00,
2013-08-20 20:37:00,67.2,62.5,30.11,SW,222,0.0,1.0,85,0.00,,,0.00,Wunderground v.1.15,2013-08-21 00:37:00,
2013-08-20 20:42:00,66.7,62.4,30.11,SW,221,0.0,1.0,86,0.00,,,0.00,Wunderground v.1.15,2013-08-21 00:42:00,
2013-08-20 20:47:00,66.2,62.2,30.11,SW,221,0.0,1.0,87,0.00,,,0.00,Wunderground v.1.15,2013-08-21 00:47:00,
2013-08-20 20:53:00,65.6,61.9,30.11,SW,221,0.0,1.0,88,0.00,,,0.00,Wunderground v.1.15,2013-08-21 00:53:00,
2013-08-20 20:58:00,65.2,61.9,30.11,SW,222,0.0,1.0,89,0.00,,,0.00,Wunderground v.1.15,2013-08-21 00:58:00,
2013-08-20 21:04:00,64.9,61.9,30.11,SW,222,0.0,1.0,90,0.00,,,0.00,Wunderground v.1.15,2013-08-21 01:04:00,
2013-08-20 21:09:00,64.6,61.6,30.12,SW,221,0.0,1.0,90,0.00,,,0.00,Wunderground v.1.15,2013-08-21 01:09:00,
2013-08-20 21:14:00,64.3,61.3,30.12,SW,222,0.0,1.0,90,0.00,,,0.00,Wunderground v.1.15,2013-08-21 01:14:00,
2013-08-20 21:19:00,64.0,61.3,30.12,SW,221,0.0,1.0,91,0.00,,,0.00,Wunderground v.1.15,2013-08-21 01:19:00,
2013-08-20 21:21:00,63.9,61.2,30.12,SW,222,0.0,1.0,91,0.00,,,0.00,Wunderground v.1.15,2013-08-21 01:21:00,
2013-08-20 21:26:00,63.6,60.9,30.12,SW,221,0.0,1.0,91,0.00,,,0.00,Wunderground v.1.15,2013-08-21 01:26:00,
2013-08-20 21:31:00,63.3,60.6,30.13,SW,221,0.0,1.0,91,0.00,,,0.00,Wunderground v.1.15,2013-08-21 01:31:00,
2013-08-20 21:36:00,63.1,60.7,30.13,SW,221,0.0,1.0,92,0.00,,,0.00,Wunderground v.1.15,2013-08-21 01:36:00,
2013-08-20 21:42:00,62.9,60.5,30.13,SW,221,0.0,1.0,92,0.00,,,0.00,Wunderground v.1.15,2013-08-21 01:42:00,
2013-08-20 21:47:00,62.7,60.3,30.13,SW,221,0.0,1.0,92,0.00,,,0.00,Wunderground v.1.15,2013-08-21 01:47:00,
2013-08-20 21:52:00,62.5,60.4,30.13,SW,221,0.0,1.0,93,0.00,,,0.00,Wunderground v.1.15,2013-08-21 01:52:00,
2013-08-20 21:58:00,62.3,60.2,30.13,SW,221,0.0,1.0,93,0.00,,,0.00,Wunderground v.1.15,2013-08-21 01:58:00,
2013-08-20 22:03:00,62.1,60.1,30.13,SW,221,0.0,1.0,93,0.00,,,0.00,Wunderground v.1.15,2013-08-21 02:03:00,
2013-08-20 22:08:00,61.9,59.9,30.14,SW,221,0.0,1.0,93,0.00,,,0.00,Wunderground v.1.15,2013-08-21 02:08:00,
2013-08-20 22:14:00,61.6,59.6,30.14,SW,221,0.0,1.0,93,0.00,,,0.00,Wunderground v.1.15,2013-08-21 02:14:00,
2013-08-20 22:19:00,61.5,59.8,30.14,SW,221,0.0,1.0,94,0.00,,,0.00,Wunderground v.1.15,2013-08-21 02:19:00,
2013-08-20 22:24:00,61.3,59.6,30.14,SW,221,0.0,1.0,94,0.00,,,0.00,Wunderground v.1.15,2013-08-21 02:24:00,
2013-08-20 22:30:00,61.1,59.4,30.14,SW,221,0.0,1.0,94,0.00,,,0.00,Wunderground v.1.15,2013-08-21 02:30:00,
2013-08-20 22:35:00,60.9,59.2,30.14,SW,221,0.0,1.0,94,0.00,,,0.00,Wunderground v.1.15,2013-08-21 02:35:00,
2013-08-20 22:40:00,60.7,59.0,30.14,SW,221,0.0,1.0,94,0.00,,,0.00,Wunderground v.1.15,2013-08-21 02:40:00,
2013-08-20 22:46:00,60.6,58.9,30.14,SW,221,0.0,1.0,94,0.00,,,0.00,Wunderground v.1.15,2013-08-21 02:46:00,
2013-08-20 22:51:00,60.5,58.8,30.14,SW,221,0.0,1.0,94,0.00,,,0.00,Wunderground v.1.15,2013-08-21 02:51:00,
2013-08-20 22:57:00,60.3,58.6,30.14,SW,221,0.0,1.0,94,0.00,,,0.00,Wunderground v.1.15,2013-08-21 02:57:00,
2013-08-20 23:02:00,60.1,58.7,30.14,SW,221,0.0,1.0,95,0.00,,,0.00,Wunderground v.1.15,2013-08-21 03:02:00,
2013-08-20 23:07:00,60.0,58.6,30.14,SW,221,0.0,1.0,95,0.00,,,0.00,Wunderground v.1.15,2013-08-21 03:07:00,
2013-08-20 23:13:00,59.9,58.5,30.13,SW,221,0.0,1.0,95,0.00,,,0.00,Wunderground v.1.15,2013-08-21 03:13:00,
2013-08-20 23:18:00,59.7,58.3,30.13,SW,221,0.0,1.0,95,0.00,,,0.00,Wunderground v.1.15,2013-08-21 03:18:00,
2013-08-20 23:23:00,59.6,58.2,30.13,SW,221,0.0,1.0,95,0.00,,,0.00,Wunderground v.1.15,2013-08-21 03:23:00,
2013-08-20 23:28:00,59.5,58.1,30.13,SW,221,0.0,1.0,95,0.00,,,0.00,Wunderground v.1.15,2013-08-21 03:28:00,
2013-08-20 23:33:00,59.3,57.9,30.13,SW,221,0.0,1.0,95,0.00,,,0.00,Wunderground v.1.15,2013-08-21 03:33:00,
2013-08-20 23:39:00,59.2,57.8,30.14,SW,221,0.0,1.0,95,0.00,,,0.00,Wunderground v.1.15,2013-08-21 03:39:00,
2013-08-20 23:44:00,59.1,57.7,30.13,SW,221,0.0,1.0,95,0.00,,,0.00,Wunderground v.1.15,2013-08-21 03:44:00,
2013-08-20 23:50:00,59.0,57.6,30.14,SW,221,0.0,1.0,95,0.00,,,0.00,Wunderground v.1.15,2013-08-21 03:50:00,
2013-08-20 23:55:00,58.9,57.5,30.14,SW,221,0.0,1.0,95,0.00,,,0.00,Wunderground v.1.15,2013-08-21 03:55:00,